Aydin, Turkey

10:52 PM +03 on May 25, 2018 (GMT +0300)
Cildir

Weather History for LTBD - January, 2014

Change the Weather History Date:

Friday, January 17, 2014

  Actual Average Record
Temperature  
Mean Temperature 54 °F -  
Max Temperature 64 °F - - ()
Min Temperature 44 °F - - ()
Degree Days  
Heating Degree Days 11    
Growing Degree Days 4 (Base 50)    
Moisture  
Dew Point 47 °F    
Average Humidity 74    
Maximum Humidity 100    
Minimum Humidity 40    
Precipitation  
Precipitation 0.00 in - - ()
Sea Level Pressure  
Sea Level Pressure 30.19 in    
Wind  
Wind Speed 3 mph ()    
Max Wind Speed 9 mph    
Max Gust Speed -    
Visibility 8.7 miles    
Events      
T = Trace of Precipitation, MM = Missing Value Source: Averaged Metar Reports

Daily Weather History Graph

Daily Weather History Graph

Search for Another Location

Airport or City:

Astronomy

Jan. 17, 2014 Rise Set
Actual Time 7:22 AM EET 5:15 PM EET
Civil Twilight 6:53 AM EET 5:43 PM EET
Nautical Twilight 6:21 AM EET 6:16 PM EET
Astronomical Twilight 5:50 AM EET 6:47 PM EET
Moon 6:41 PM EET (1/17) 7:41 AM EET (1/17)
Length of Visible Light 10h 50m
Length of Day
9h 52m
Full, 99% of the Moon is Illuminated
Jan 17
Full
Jan 24
Last Quarter
Jan 30
New
Feb 6
First Quarter
Feb 15
Full

Hourly Weather History & Observations

Time (EET) Temp. Windchill Dew Point Humidity Pressure Visibility Wind Dir Wind Speed Gust Speed Precip Events Conditions
2:00 AM 50 °F - 46 °F 82% 30.13 in 12 mi East 2.3 mph - -   Mostly Cloudy
5:00 AM 47 °F - 44 °F 87% 30.15 in 12 mi SE 1.2 mph - -   Scattered Clouds
6:50 AM 44.6 °F 40.7 °F 44.6 °F 100% 30.15 in 3.1 mi ENE 6.9 mph - N/A   Mist
7:06 AM 44.6 °F 42.2 °F 42.8 °F 93% 30.18 in 2.5 mi ENE 4.6 mph - N/A   Mist
7:50 AM 42.8 °F 40.1 °F 42.8 °F 100% 30.18 in 2.2 mi East 4.6 mph - N/A   Mist
8:00 AM 46 °F - 44 °F 92% 30.20 in 12 mi ENE 1.2 mph - -   Scattered Clouds
8:50 AM 44.6 °F 41.4 °F 44.6 °F 100% 30.21 in 2.2 mi East 5.8 mph - N/A   Mist
9:00 AM 47 °F - 45 °F 89% 30.22 in 12 mi ESE 2.3 mph - -  
9:50 AM 48.2 °F - 48.2 °F 100% 30.21 in 3.1 mi East 9.2 mph - N/A   Mist
10:00 AM 52 °F - 46 °F 72% 30.23 in 12 mi East 4.6 mph - -  
10:50 AM 53.6 °F - 50.0 °F 88% 30.21 in 3.7 mi East 8.1 mph - N/A   Partly Cloudy
11:00 AM 55 °F - 46 °F 64% 30.23 in 12 mi East 3.5 mph - -  
11:50 AM 55.4 °F - 51.8 °F 88% 30.21 in 5.0 mi East 9.2 mph - N/A   Partly Cloudy
12:00 PM 58 °F - 47 °F 57% 30.22 in 12 mi East 4.6 mph - -  
12:50 PM 59.0 °F - 50.0 °F 72% 30.18 in 6.2 mi East 6.9 mph - N/A   Partly Cloudy
1:00 PM 60 °F - 46 °F 49% 30.20 in 12 mi East 3.5 mph - -   Scattered Clouds
1:50 PM 60.8 °F - 50.0 °F 68% 30.18 in 6.2 mi East 5.8 mph - N/A   Partly Cloudy
2:00 PM 62 °F - 45 °F 42% 30.19 in 12 mi East 3.5 mph - -   Scattered Clouds
2:50 PM 62.6 °F - 46.4 °F 55% 30.15 in 6.2 mi East 1.2 mph - N/A   Partly Cloudy
3:00 PM 63 °F - 45 °F 40% 30.18 in 12 mi SE 2.3 mph - -   Scattered Clouds
3:50 PM 64.4 °F - 48.2 °F 56% 30.18 in - West 1.2 mph - N/A   Clear
4:00 PM 64 °F - 46 °F 40% 30.18 in 12 mi SW 2.3 mph - -   Scattered Clouds
4:50 PM 60.8 °F - 51.8 °F 72% 30.18 in - WSW 3.5 mph - N/A   Clear
5:00 PM 60 °F - 48 °F 54% 30.19 in 12 mi West 1.2 mph - -   Clear
8:00 PM 52 °F - 47 °F 76% 30.23 in 12 mi Calm Calm - -  
11:00 PM 49 °F - 45 °F 80% 30.27 in 12 mi East 2.3 mph - -